Theta_e
302 302 301 301 302 302 302 303 303 304 303 305 306 310 305 303 302 313 317 319 315 307 300 299 296 295 299 301 297 299 296 295 298 297 299 296 297 297 296 295 294 296 296 297 296 297 295 296 295 299 299 301 305 306 306 307 305 305 301 301 303 304 296 293 294 299 301 302 303 304 304 303 301 301 302 300 297 298 297 294 296 294 291 289 290 287 293
302 301 301 301 302 302 302 303 304 304 304 303 305 304 304 306 306 307 315 319 315 306 291 292 292 296 299 298 298 298 298 297 297 295 298 297 297 295 296 297 297 296 299 297 295 298 291 297 297 297 300 299 304 306 305 306 304 303 303 299 305 295 298 295 291 290 293 296 298 300 303 301 299 299 301 301 302 301 301 300 300 290 293 292 289 285 290
301 301 301 301 302 302 303 303 304 304 305 306 303 302 305 307 309 307 310 315 312 300 299 298 293 296 296 296 295 296 295 297 298 299 298 299 299 298 296 297 299 297 298 296 297 298 296 296 299 299 303 300 305 306 306 306 305 308 308 308 306 297 297 294 288 285 283 283 284 288 292 296 298 300 300 301 300 301 299 292 294 288 293 295 291 290 299
301 301 301 301 302 302 303 303 304 305 305 304 303 303 306 303 292 303 306 308 307 304 305 301 298 295 296 292 295 296 295 297 298 298 298 300 299 298 299 299 299 296 296 295 294 294 298 296 297 298 299 300 304 307 308 307 308 309 307 307 306 299 301 299 296 292 291 293 293 298 299 300 294 297 300 300 300 300 301 300 293 290 293 291 294 295 297
300 301 301 301 302 302 303 303 304 304 304 304 304 307 305 304 296 297 295 303 302 300 301 299 299 294 299 290 295 294 295 297 298 298 296 299 297 298 297 297 295 295 295 294 295 296 295 298 296 297 296 300 302 304 307 306 306 307 306 307 305 301 295 300 300 300 296 298 298 299 298 296 298 298 298 299 298 298 298 294 292 299 295 288 297 301 299
300 300 301 301 302 302 303 303 304 304 304 303 306 303 307 295 301 303 306 296 293 294 295 299 298 299 297 295 298 295 294 295 293 296 298 299 299 296 297 296 296 296 295 296 291 294 294 295 292 297 298 298 300 302 304 305 305 307 306 308 304 299 291 297 298 300 300 299 300 300 299 299 298 298 300 299 298 298 295 299 299 302 292 289 297 299 298
300 300 301 301 302 302 303 303 304 304 303 304 306 304 307 306 304 303 305 296 299 299 299 300 298 296 297 296 296 295 295 294 296 296 297 296 297 297 290 295 295 295 296 296 293 295 291 289 299 299 300 299 299 299 301 303 306 304 304 305 305 300 293 298 299 296 300 299 300 300 298 298 299 299 300 301 301 301 302 302 303 302 300 302 299 301 300
300 300 301 302 302 302 303 303 305 304 302 304 306 306 302 301 301 298 302 303 300 300 300 299 297 296 297 292 295 295 294 294 296 296 296 292 295 298 295 295 295 295 296 296 294 296 297 298 291 301 299 300 302 298 299 296 303 303 300 302 304 299 292 296 299 297 296 298 299 299 297 298 298 299 299 301 302 301 302 302 302 302 302 301 301 298 292
300 300 301 301 302 302 303 304 305 304 302 305 305 308 308 307 309 307 298 295 298 297 297 296 296 293 294 294 296 296 295 295 296 296 298 297 295 296 295 296 297 297 296 296 296 297 298 298 298 299 299 295 300 297 298 300 299 301 301 301 301 299 293 299 296 290 291 298 297 297 298 298 299 298 297 298 299 298 299 296 301 300 297 299 301 296 293
300 300 301 301 302 302 303 304 305 304 302 305 309 305 311 309 309 309 303 293 295 296 297 298 296 291 297 297 296 295 295 297 296 292 298 298 299 298 297 298 297 296 296 295 297 299 299 299 300 300 301 302 301 302 300 300 300 300 302 302 299 298 296 291 292 289 287 297 297 297 295 294 289 292 294 295 298 300 300 300 301 301 302 297 294 296 299
300 300 301 301 302 302 303 304 305 304 304 305 307 306 308 306 302 303 302 294 292 297 296 295 295 296 298 299 297 297 297 296 297 293 291 298 298 299 299 298 297 295 295 298 302 302 302 302 302 302 301 300 301 301 301 301 301 300 302 302 300 300 296 292 295 286 289 293 296 294 290 283 285 292 296 296 295 297 297 296 297 301 303 298 300 298 298
300 300 301 301 302 302 303 304 305 305 305 307 309 308 312 314 308 305 298 292 291 297 296 293 295 297 297 296 297 297 296 296 297 298 295 298 299 300 299 299 298 290 299 302 302 302 303 303 302 302 300 299 300 301 301 300 299 300 297 294 298 298 296 293 295 290 289 293 292 287 282 283 291 296 296 297 298 298 296 296 297 299 301 301 299 298 297
300 300 301 301 302 302 303 304 305 305 306 309 310 307 316 316 310 303 300 296 291 294 293 293 296 296 297 297 296 297 297 297 298 299 298 298 298 299 299 298 297 297 301 300 300 300 296 295 296 297 296 298 299 301 301 302 300 301 302 301 299 293 294 294 291 291 291 288 287 280 282 288 293 295 297 298 298 297 297 293 295 297 298 299 296 296 295
300 300 301 301 302 302 303 304 305 305 305 307 308 310 315 315 307 303 301 295 293 298 297 294 294 294 295 295 295 296 296 297 298 299 297 300 298 298 299 299 300 301 302 302 299 297 294 295 290 293 292 294 296 295 298 299 301 301 301 302 302 301 298 294 288 293 285 287 287 285 288 287 290 290 292 292 291 292 291 288 291 296 297 297 295 294 294
299 300 301 301 302 303 303 304 305 305 305 305 309 312 313 314 311 307 306 301 293 295 298 291 295 296 295 295 294 293 295 296 295 295 299 301 298 300 301 301 302 301 302 299 296 297 293 292 287 286 287 288 283 285 295 291 298 301 301 300 302 301 293 294 289 287 290 287 284 284 284 282 285 291 295 296 295 294 296 294 291 296 297 298 296 294 293
299 300 301 301 302 303 303 304 304 305 305 305 308 311 314 316 315 310 305 302 296 289 294 299 299 295 295 294 295 294 293 292 294 296 296 297 297 299 301 301 302 303 300 297 296 294 292 288 285 285 283 285 291 288 286 292 293 298 301 299 301 301 299 295 290 288 288 286 284 284 283 283 288 291 295 297 298 297 296 292 287 294 297 297 296 294 294
300 300 301 302 302 303 304 304 305 305 306 305 308 312 311 316 311 310 305 302 299 292 297 298 299 298 295 294 296 295 296 293 294 290 290 292 296 296 298 300 304 301 298 297 296 293 290 288 291 287 290 291 285 285 290 289 290 290 297 299 297 297 295 294 290 287 288 286 285 283 285 282 288 292 294 296 298 298 294 284 284 293 296 296 296 294 294
300 300 301 302 302 303 304 304 305 306 306 306 308 311 309 315 313 314 307 301 294 294 297 299 299 297 295 296 294 295 298 297 296 295 292 295 294 294 295 298 296 300 302 293 295 291 289 289 285 285 285 290 292 290 283 288 285 288 289 292 291 291 292 292 288 289 287 286 284 284 284 289 292 293 296 298 299 295 286 282 285 295 296 297 297 295 296
299 300 301 301 302 303 304 305 305 306 307 306 311 312 306 312 315 311 311 300 297 291 297 299 300 298 299 300 298 298 297 299 298 293 292 292 294 296 296 298 299 293 297 293 295 290 289 289 294 289 285 286 292 285 290 287 286 291 293 291 290 288 289 289 290 287 286 287 287 285 284 288 292 295 296 297 292 285 284 289 298 297 295 296 296 295 294
299 300 301 301 302 303 304 305 305 306 306 306 307 309 310 315 312 314 309 299 299 295 298 299 299 297 300 299 297 297 298 299 298 295 293 290 298 297 296 291 297 298 295 299 289 294 290 287 289 294 289 289 289 294 289 289 294 289 287 290 289 285 285 286 286 287 287 287 285 284 280 287 294 294 295 294 287 286 292 296 297 298 296 296 296 295 293
299 300 300 301 302 303 304 305 306 306 307 306 305 306 302 312 315 321 317 304 299 293 294 300 301 299 299 299 300 298 297 295 296 295 297 298 300 298 287 288 295 296 291 293 287 289 290 287 290 289 294 292 289 291 286 287 290 295 293 288 288 291 286 285 285 287 285 284 281 279 284 289 293 292 286 290 292 295 296 297 295 297 297 296 294 294 293
299 300 300 301 302 304 304 305 306 306 306 306 303 312 302 308 313 311 309 307 300 295 298 301 301 301 301 302 302 302 299 298 300 302 299 296 302 300 298 299 298 299 300 300 296 292 296 294 296 291 289 289 292 287 289 285 283 290 295 293 284 291 287 287 283 287 285 282 284 287 291 292 293 293 292 294 296 297 298 301 297 296 297 298 294 293 294
299 300 301 301 302 304 304 305 305 306 306 306 310 308 303 304 307 311 310 300 302 302 303 302 302 302 302 302 303 303 304 304 305 304 304 298 295 300 300 299 298 302 303 302 296 296 296 296 290 293 290 292 288 288 290 289 286 289 286 293 290 294 294 294 290 285 290 290 290 292 292 292 292 293 293 293 294 295 297 296 295 297 298 298 295 295 294
299 300 300 301 302 303 304 305 305 305 306 306 311 307 304 306 306 307 303 303 299 296 299 302 298 293 296 297 300 303 302 302 302 306 307 306 297 295 300 301 303 304 301 303 305 299 297 296 296 296 287 292 293 288 286 284 286 290 289 288 292 295 296 294 288 290 288 281 290 289 290 292 291 291 292 293 294 293 295 295 296 296 297 296 296 294 294
299 300 300 301 302 303 304 305 305 305 306 306 310 308 310 309 311 309 303 293 295 294 288 292 295 299 300 301 302 301 302 304 306 305 306 308 304 298 296 301 305 302 300 304 307 302 298 293 294 292 287 292 294 287 292 288 287 294 287 288 290 288 296 290 290 288 284 283 288 290 291 291 292 292 290 290 291 293 294 296 296 295 296 296 294 294 293
299 299 300 301 302 303 304 304 305 305 305 305 309 306 305 307 312 312 308 305 303 298 290 289 294 301 302 300 298 300 304 304 303 304 305 305 305 307 305 305 304 307 306 305 305 299 296 294 293 293 291 290 298 290 289 293 291 294 290 288 294 294 296 287 290 286 287 289 290 291 291 291 291 291 292 292 292 293 293 293 293 293 292 293 295 296 295
299 299 300 301 302 303 304 304 304 304 305 304 313 310 307 308 312 312 307 304 297 291 293 290 295 298 300 298 301 303 303 303 304 303 303 304 305 307 307 305 303 303 302 300 301 297 296 295 293 291 293 292 297 294 295 292 292 289 289 293 296 294 288 291 289 285 284 285 288 292 285 284 288 290 291 292 294 293 293 293 292 292 292 293 292 292 293
299 300 300 301 302 303 304 304 304 304 305 305 312 311 312 309 311 313 315 310 304 292 292 292 293 297 302 298 301 303 303 303 303 302 302 303 304 305 305 304 303 301 300 297 293 293 293 291 290 293 293 297 294 290 296 295 295 291 291 292 295 292 293 291 287 286 284 289 291 293 292 291 292 293 294 295 295 295 294 294 294 294 294 294 293 292 292
299 300 300 301 302 303 303 304 304 304 304 306 311 307 307 310 312 313 311 316 314 301 296 296 300 299 292 296 302 301 303 304 304 303 303 303 303 304 304 303 301 300 300 297 294 294 293 293 294 293 292 297 295 290 292 287 287 285 289 295 295 296 297 295 294 294 293 295 295 296 294 291 293 296 297 296 297 296 295 295 296 296 296 295 295 294 293
299 300 301 301 302 303 303 304 304 305 304 311 308 303 297 299 308 310 312 311 314 305 295 291 288 290 302 300 299 300 301 303 303 304 303 302 303 303 302 302 301 301 299 295 293 290 293 293 293 298 299 303 292 290 288 289 287 288 294 295 296 297 296 297 297 294 292 295 296 296 296 295 296 296 296 297 298 297 295 295 295 295 294 295 294 294 295
299 300 301 301 302 303 303 304 304 304 305 311 307 295 293 290 300 311 308 314 313 307 296 295 291 295 295 300 301 298 300 301 302 302 302 302 302 302 303 302 301 300 295 295 294 293 294 291 292 294 298 298 294 290 288 287 285 287 292 294 295 295 295 295 297 297 297 297 297 297 297 296 297 296 296 296 296 296 295 295 295 294 294 293 294 294 294
299 300 301 301 302 302 303 304 305 305 312 308 303 301 303 306 309 309 309 310 312 304 294 290 289 290 290 294 299 301 300 300 302 303 302 303 300 302 301 301 297 300 296 293 294 293 292 293 292 294 294 296 294 290 290 288 285 286 293 294 295 296 296 296 296 296 297 297 296 295 294 294 296 294 293 296 296 297 297 296 295 295 295 295 295 295 295
299 300 300 301 302 302 303 305 304 305 308 305 303 303 304 304 303 306 309 314 309 301 302 293 288 290 289 292 299 301 302 301 300 301 298 303 299 301 296 301 300 298 301 295 291 289 294 292 292 291 295 299 291 290 289 286 288 292 293 294 295 295 295 296 297 297 297 297 297 293 291 292 294 296 296 297 297 296 296 296 296 296 296 295 294 294 294
299 300 300 301 302 303 304 304 303 300 303 310 307 305 310 303 309 305 313 317 305 303 298 292 288 288 289 298 294 297 302 296 295 298 292 301 302 299 295 297 298 293 296 293 293 293 294 293 290 290 294 291 292 289 284 288 293 293 293 294 295 295 295 295 296 295 296 296 297 296 296 296 297 297 296 296 295 296 297 297 296 295 295 294 294 294 295
299 300 301 301 302 303 303 303 310 311 305 305 305 309 310 303 302 304 313 310 293 291 292 292 293 288 289 290 288 294 301 298 292 297 292 296 303 297 297 291 293 291 291 301 293 292 290 291 296 290 287 293 289 285 286 290 291 293 293 293 294 294 294 293 293 295 295 296 296 296 296 296 295 294 294 295 295 296 295 295 296 295 294 294 294 294 295
299 300 301 302 302 303 307 308 307 303 301 302 304 307 303 305 307 318 318 312 305 294 291 291 292 290 290 285 285 290 300 295 298 298 296 295 296 299 297 293 288 292 299 294 289 293 289 295 292 286 290 287 285 287 289 292 292 293 293 293 294 294 293 293 294 295 295 296 296 296 295 296 295 294 294 295 295 296 295 295 295 295 294 294 294 295 295
300 301 301 302 304 306 303 299 306 307 307 309 309 303 301 305 313 314 312 309 307 308 298 292 291 292 294 289 291 292 298 289 296 294 295 292 290 293 294 291 288 291 291 290 290 289 292 298 291 287 287 285 287 293 294 294 293 293 293 294 294 295 295 295 296 296 295 295 295 294 295 294 294 294 294 294 294 295 295 294 294 294 294 294 294 294 295
300 300 304 304 304 295 293 296 304 308 305 303 304 304 302 305 296 296 296 295 299 301 296 299 292 295 296 293 288 298 298 292 298 290 290 293 290 290 293 290 289 290 285 287 290 298 293 291 288 286 286 292 294 294 294 295 295 296 296 295 295 296 296 296 296 295 293 292 292 293 293 293 293 293 293 293 294 294 294 296 296 296 296 295 295 295 296
300 305 306 305 300 294 295 302 309 300 309 306 307 298 294 297 294 290 291 293 293 293 296 295 291 296 295 292 293 300 298 292 290 291 288 294 290 285 291 285 288 290 285 286 288 298 286 286 287 287 285 290 291 293 296 296 296 296 297 297 297 297 297 297 297 295 294 294 294 294 294 293 292 292 294 294 295 295 295 295 296 296 296 296 296 296 295
304 302 297 297 297 298 304 305 300 304 306 298 298 296 290 294 290 287 294 290 290 292 294 291 298 297 297 293 291 292 301 298 289 288 289 291 297 288 290 290 289 288 282 284 286 296 287 283 286 286 284 289 290 294 295 295 295 296 296 296 297 297 297 297 297 298 297 297 297 296 297 297 296 295 295 294 294 294 294 295 296 296 297 296 294 295 296
304 302 300 296 300 302 302 305 308 305 298 293 292 292 290 288 292 292 290 288 288 289 297 296 296 296 297 297 296 291 297 303 299 298 293 288 295 295 288 285 290 286 284 284 288 291 288 286 286 285 286 290 291 294 295 295 294 295 296 297 297 297 297 297 297 298 297 296 296 296 297 296 296 296 296 296 295 295 295 295 295 297 297 297 296 296 296
306 305 306 306 304 304 305 302 298 293 293 293 288 285 289 289 291 290 291 287 287 290 294 295 290 293 293 297 296 297 294 300 296 292 290 286 290 290 286 288 289 285 281 287 290 289 287 282 284 285 288 291 294 295 295 295 295 295 295 296 297 297 297 297 297 297 297 296 296 296 297 297 296 296 296 296 296 296 296 296 296 296 296 297 297 297 297
298 299 307 301 299 297 297 291 293 292 285 285 285 283 287 284 286 286 287 292 294 294 294 302 298 300 300 301 297 299 295 301 294 292 290 286 291 291 287 285 285 282 286 291 288 285 283 283 284 286 291 292 294 295 295 295 296 296 296 297 297 298 297 297 297 297 297 297 297 297 296 297 297 297 297 297 296 296 296 296 296 296 297 297 297 297 297
307 305 299 295 292 292 293 281 292 288 285 286 283 279 283 283 286 289 287 289 291 292 296 294 294 294 289 297 294 291 293 295 295 293 290 291 289 286 285 282 285 289 292 287 286 282 284 285 288 290 292 294 295 295 295 295 296 296 296 296 297 297 297 297 297 297 296 297 298 297 297 296 296 297 297 297 296 295 296 296 297 297 297 297 296 296 297
296 293 292 290 288 290 288 280 290 286 280 283 286 285 285 283 286 289 288 293 296 293 296 297 295 295 291 296 296 294 294 290 294 289 285 289 286 287 285 284 288 288 285 282 284 285 285 284 290 292 292 292 294 295 296 296 295 295 295 296 296 297 297 297 296 296 296 296 297 297 296 296 296 296 296 296 297 297 296 296 297 297 297 297 296 296 297
292 290 289 284 279 286 287 283 284 282 287 288 287 290 289 291 292 292 297 298 296 296 294 296 297 295 291 294 291 289 292 292 289 288 289 289 284 283 288 291 289 284 283 284 282 281 283 287 290 291 293 294 294 295 295 296 296 296 296 295 295 296 296 296 296 296 296 296 297 296 296 296 296 296 296 297 297 297 297 298 298 297 297 297 296 296 297
292 292 292 289 284 286 290 284 284 288 290 291 293 294 295 296 297 297 298 299 297 298 298 298 297 296 292 291 291 291 293 292 287 288 291 285 283 286 290 286 280 283 279 279 281 283 285 289 291 294 294 294 294 295 295 296 296 296 296 295 296 296 296 296 296 296 296 297 297 296 296 296 296 297 297 296 297 298 297 298 298 298 298 297 297 297 298
288 292 292 283 282 286 284 288 294 293 296 296 295 297 298 298 296 295 298 300 299 299 297 296 293 294 292 296 296 290 290 290 286 287 290 286 287 284 283 282 282 284 284 282 283 287 289 291 291 293 295 295 295 292 294 295 296 295 295 295 295 295 296 296 296 296 296 296 296 296 296 296 296 296 296 296 297 297 298 298 298 299 298 298 298 298 298
293 290 287 286 288 288 288 292 292 290 292 294 295 295 295 295 294 296 299 301 298 298 298 296 292 292 289 292 290 288 286 289 284 283 288 286 282 278 279 277 280 279 284 287 288 289 291 292 294 295 295 295 295 294 295 296 296 295 295 295 295 296 296 296 296 296 297 297 297 296 296 297 297 296 296 296 296 297 298 299 298 298 298 298 297 297 297
290 289 290 289 288 290 293 293 292 290 292 292 293 293 296 295 295 297 300 298 299 297 297 296 295 292 290 290 286 287 286 289 287 286 285 282 282 284 283 279 281 282 284 289 291 291 294 295 296 294 295 295 295 295 296 296 294 295 296 296 296 296 296 296 296 297 297 297 297 297 297 297 297 296 296 296 297 298 298 299 299 298 298 299 298 298 297
294 291 291 294 291 289 291 286 288 288 289 290 292 293 295 295 295 296 301 300 299 295 292 290 291 290 288 287 286 282 285 290 286 284 284 283 286 284 282 281 284 288 290 293 294 295 295 295 294 294 294 295 296 296 296 296 296 296 296 296 296 296 297 297 297 297 297 297 297 293 296 297 297 297 298 298 298 297 298 297 298 298 298 299 299 298 298
289 287 288 291 295 294 293 295 295 293 293 294 295 296 297 295 297 298 301 299 296 292 290 293 291 288 285 283 286 289 290 288 285 286 284 286 288 285 284 286 288 290 291 292 294 295 294 294 295 292 296 295 296 296 296 296 296 296 296 296 296 296 296 296 296 296 297 296 297 297 297 297 298 298 298 297 297 296 295 296 297 298 298 299 299 299 299
Wind_Speed
11 11 11 11 12 12 13 13 13 11 11 9 3 4 5 6 2 8 11 9 8 5 5 6 4 8 3 4 2 3 4 6 3 6 5 6 5 4 5 5 5 7 7 3 6 6 6 6 5 8 2 5 6 5 2 3 8 7 6 9 7 5 5 8 11 8 10 6 5 4 6 8 11 9 9 10 13 13 9 5 7 5 3 7 7 5 4
11 10 10 11 12 13 13 14 13 11 8 7 7 6 6 4 4 6 8 9 8 4 6 6 6 4 1 5 2 2 4 5 5 7 4 5 4 5 5 4 6 5 2 5 8 3 4 5 8 6 6 4 14 8 2 5 7 9 4 5 5 7 7 10 7 7 9 8 10 10 10 10 10 9 10 12 8 9 8 5 4 5 4 8 7 1 2
10 10 10 11 12 13 14 13 12 12 9 7 4 4 4 3 5 4 7 8 7 5 4 6 4 7 4 5 6 6 6 5 6 5 3 2 4 3 5 6 3 5 5 7 7 6 7 4 6 7 7 4 11 3 7 5 4 7 2 3 3 4 6 9 10 10 11 10 11 8 9 12 10 12 12 8 10 9 8 6 5 4 9 14 7 1 6
10 10 11 11 13 13 13 13 12 11 9 6 5 5 4 7 3 5 6 6 6 7 5 3 4 2 5 3 4 4 6 4 5 6 5 2 3 6 5 4 6 8 6 7 8 10 8 5 4 6 3 3 4 3 5 5 6 6 5 5 4 4 5 9 7 10 4 3 5 10 10 7 12 14 9 8 7 11 12 8 5 8 4 9 4 7 9
10 10 11 11 12 13 13 13 12 10 9 9 8 6 5 4 3 5 4 5 6 5 6 5 5 3 2 3 5 7 5 4 7 6 5 7 6 3 6 5 3 5 6 6 7 8 7 7 8 8 2 8 3 2 4 7 9 9 2 3 5 7 9 12 9 5 8 4 3 6 8 6 13 3 8 11 7 8 10 7 8 5 0 5 8 10 7
9 10 11 12 13 13 13 13 13 6 6 1 6 4 5 3 2 2 1 4 5 7 6 5 4 4 6 1 2 4 6 5 5 5 6 1 3 7 4 9 6 6 6 4 5 6 7 6 5 5 7 3 6 3 4 3 5 6 4 7 4 4 7 8 11 9 3 4 1 5 5 5 5 6 7 5 8 8 14 10 12 3 2 4 5 7 2
9 10 11 12 13 13 13 13 12 4 4 3 5 5 6 6 2 1 3 4 5 7 6 2 2 7 6 3 4 4 4 5 3 2 5 7 6 5 2 5 2 5 3 6 5 1 5 4 1 4 4 6 2 1 4 6 2 2 5 6 6 2 2 7 8 7 4 3 1 1 7 6 3 1 0 2 2 4 5 3 4 4 1 7 12 11 10
9 10 10 11 13 13 13 12 11 1 3 5 6 7 4 4 2 6 3 1 3 3 4 4 4 3 2 2 4 2 4 4 3 3 4 2 4 4 6 9 5 3 5 3 4 2 3 4 0 2 6 4 4 4 1 2 4 4 3 2 5 1 0 9 8 9 9 5 3 5 4 8 3 4 6 5 1 3 6 3 5 5 6 7 13 13 9
9 10 10 11 13 13 12 12 12 3 5 4 6 5 6 4 3 3 4 4 4 4 4 5 6 3 6 5 4 5 3 2 3 3 2 4 5 5 5 4 4 3 5 3 4 3 3 1 2 4 3 3 3 3 3 10 2 2 3 2 2 2 2 4 3 5 6 6 9 5 4 8 6 3 6 8 5 2 6 4 7 6 5 6 7 5 4
8 9 10 11 12 12 12 12 11 5 5 4 5 6 2 3 3 4 5 2 2 4 1 3 5 4 4 3 5 3 4 3 4 1 4 3 2 1 4 2 5 6 5 5 1 4 4 4 5 5 4 5 2 3 3 3 2 0 2 2 2 2 2 2 2 4 8 3 5 7 6 5 8 4 5 5 4 4 2 5 5 7 5 7 4 1 9
8 9 10 11 12 13 12 12 11 3 4 5 4 4 3 4 4 5 5 2 2 6 6 3 4 4 4 5 4 2 2 2 4 3 2 7 5 1 5 5 6 4 5 1 4 6 6 6 5 5 5 4 4 3 1 2 2 1 2 5 2 5 4 3 2 3 2 3 3 3 3 11 4 5 4 6 3 6 2 4 6 8 9 6 8 10 11
9 10 11 12 13 13 12 12 11 9 6 6 7 7 6 5 6 6 3 2 2 2 4 1 2 6 6 5 3 4 4 4 2 3 4 1 0 2 2 7 4 2 6 3 5 5 9 8 9 7 6 5 5 3 4 4 2 3 2 2 4 5 4 3 2 3 2 2 4 4 9 4 5 2 5 3 5 4 7 7 9 8 6 8 11 11 10
9 10 11 12 13 13 13 12 11 10 6 6 7 7 4 3 5 5 4 3 4 5 3 6 2 3 2 4 5 3 2 3 1 3 3 4 5 5 3 5 3 2 4 4 6 7 7 8 9 10 9 8 7 7 6 5 5 5 2 3 6 4 5 2 1 2 0 2 5 5 1 2 3 4 5 4 1 4 4 7 6 9 7 8 11 11 11
9 11 11 12 13 13 13 12 12 10 6 6 7 7 6 4 5 6 4 2 2 1 5 5 4 4 3 3 2 4 3 6 4 3 5 4 6 5 2 2 3 3 3 5 6 6 5 5 6 5 8 8 8 8 9 5 5 5 6 6 3 5 4 1 0 3 5 4 3 2 6 4 3 1 5 6 4 5 4 1 5 6 6 7 10 10 11
10 10 12 13 14 14 13 13 12 10 9 6 7 8 7 4 3 5 4 5 2 3 4 0 4 5 2 2 3 5 6 4 5 5 6 3 5 4 4 1 1 4 4 5 5 4 5 3 5 6 4 5 7 7 7 6 6 5 7 4 6 6 3 3 1 3 5 2 5 5 5 3 4 6 5 2 1 4 4 3 4 5 4 5 9 10 11
9 11 12 13 14 14 14 13 12 11 10 6 7 7 4 2 4 5 6 3 3 3 3 5 4 0 2 2 1 5 2 1 3 3 5 6 5 6 6 3 2 3 6 6 6 4 4 5 3 2 5 7 5 3 3 4 5 7 6 7 6 6 8 6 3 2 1 6 7 5 5 5 5 7 5 6 2 1 1 2 3 4 4 6 8 10 10
9 10 12 13 15 15 15 14 13 11 10 5 6 6 2 1 3 4 5 2 1 3 4 4 2 2 3 4 5 2 3 2 3 2 3 2 3 1 2 2 1 5 6 6 5 5 4 5 7 4 2 2 4 5 1 4 4 7 9 9 7 6 4 4 4 4 5 3 6 2 4 4 6 7 6 6 2 2 3 4 4 3 6 6 8 9 9
10 11 13 14 15 15 15 15 14 12 10 5 7 6 1 2 2 5 5 1 3 4 5 2 4 4 2 6 3 3 3 3 4 2 4 2 2 4 2 3 6 6 4 6 4 5 5 4 3 4 4 3 4 1 3 6 4 2 4 3 3 4 3 4 5 4 4 8 2 6 4 4 9 9 8 4 4 3 3 3 3 3 6 8 8 9 7
11 12 13 14 15 15 16 16 15 14 11 7 7 7 2 0 0 2 6 3 3 3 5 3 5 9 6 3 5 2 5 5 3 3 0 2 2 6 5 3 4 2 6 4 4 3 4 2 1 2 4 2 6 2 3 1 1 4 5 5 5 2 1 1 1 1 1 4 1 5 6 4 10 10 5 6 5 0 5 2 2 6 10 9 9 9 9
11 12 13 14 15 16 16 16 15 13 11 7 4 3 4 1 1 2 6 4 5 7 6 4 3 7 5 6 4 3 1 3 5 5 2 2 3 3 2 2 5 3 3 5 3 2 3 3 1 1 1 2 2 1 4 6 7 4 3 7 3 4 3 1 1 3 0 1 4 5 5 6 15 14 1 10 2 4 2 3 6 8 9 10 9 10 10
11 12 13 15 15 16 16 16 15 13 11 7 4 4 5 1 1 4 5 4 7 6 5 3 5 9 8 8 7 7 7 7 7 6 6 4 3 2 2 2 3 0 1 2 3 3 2 2 2 2 4 3 2 3 4 6 9 10 6 5 8 8 2 3 3 4 1 4 4 4 4 6 10 10 5 5 5 4 5 1 9 8 9 9 9 10 11
10 12 14 15 16 16 16 16 15 15 12 8 5 6 6 4 1 1 3 3 4 4 7 8 8 8 8 7 5 6 8 8 8 7 6 4 2 3 2 1 2 4 3 5 2 2 2 2 3 3 4 4 1 3 5 2 6 6 10 2 4 10 6 3 6 5 4 5 5 5 5 6 7 9 8 6 9 8 8 6 8 9 8 11 11 12 12
10 12 14 15 16 16 16 16 16 16 14 11 9 3 7 7 6 5 6 9 8 8 7 6 6 7 7 8 6 6 5 4 5 6 6 7 1 4 4 4 5 3 3 3 1 5 5 1 6 4 5 5 5 6 9 9 7 7 8 11 8 5 10 9 10 11 14 13 9 5 7 8 9 9 8 9 10 11 9 10 8 9 11 11 12 14 14
11 13 14 15 15 16 16 16 17 15 15 15 12 6 7 8 8 7 8 7 4 7 6 5 4 4 6 7 6 5 5 6 6 4 2 4 5 2 6 6 4 2 5 5 6 6 5 4 6 7 6 3 2 4 6 8 7 8 9 7 6 7 4 5 5 4 2 7 9 9 9 8 9 10 11 12 12 10 9 8 9 13 14 14 14 14 14
12 13 14 15 15 16 16 17 16 15 15 14 10 7 6 6 2 2 7 4 4 3 5 4 5 5 7 7 6 6 6 3 2 4 2 2 5 7 7 5 5 6 6 4 4 3 3 5 6 5 6 2 2 8 7 8 7 4 8 8 7 10 11 15 14 15 10 7 10 11 11 10 10 8 9 11 11 12 10 8 9 13 13 14 14 13 13
12 13 14 14 15 16 16 16 16 15 15 16 13 6 6 5 2 3 2 4 6 5 5 6 7 5 6 7 8 7 4 4 5 6 6 8 9 7 5 3 4 2 4 5 6 5 5 5 4 5 7 9 8 8 9 10 10 8 9 7 6 7 4 7 9 12 12 13 14 15 15 15 13 12 11 9 10 12 13 12 13 14 14 14 14 11 11
12 13 14 14 15 15 15 15 15 14 14 15 7 5 4 3 2 5 4 1 6 4 4 6 6 7 6 9 6 5 5 6 4 5 6 6 6 5 4 4 4 4 6 7 7 6 5 7 7 9 8 9 8 10 9 9 11 9 10 10 10 11 11 10 8 9 7 5 3 3 7 8 9 11 12 13 13 13 13 13 15 14 13 12 13 13 13
12 13 14 14 15 15 15 15 14 14 14 14 6 4 3 2 2 4 4 6 6 4 6 7 7 7 5 10 8 8 8 7 6 6 7 7 8 6 6 5 5 6 6 6 6 6 7 8 9 5 6 8 9 10 10 11 10 11 9 8 6 7 7 5 7 8 10 12 15 14 14 14 13 12 12 12 12 13 14 13 12 12 11 11 11 11 12
12 13 13 14 14 14 14 14 14 14 14 13 2 4 5 3 2 4 5 4 6 5 6 7 6 4 3 6 5 9 9 8 8 8 8 9 9 8 8 8 9 8 9 8 6 6 7 7 4 6 4 5 2 9 8 10 11 12 11 11 13 13 13 15 15 16 14 12 11 11 10 11 12 13 13 12 11 13 14 12 11 11 11 10 10 9 9
12 13 13 14 14 15 14 14 13 13 11 5 5 5 5 5 2 3 5 5 6 4 4 5 6 3 2 4 8 7 10 9 10 10 10 9 9 8 9 8 9 8 8 6 6 8 6 6 5 6 5 4 3 7 8 9 11 11 11 12 13 14 14 13 11 12 13 12 13 13 14 14 12 11 11 11 12 11 11 12 11 9 8 7 7 7 7
12 13 14 14 14 14 14 14 14 12 9 3 5 3 3 3 3 2 7 6 5 3 4 3 6 5 5 3 5 8 9 9 9 9 10 8 8 9 8 7 8 7 6 5 6 6 4 7 4 6 7 9 4 7 10 9 11 11 12 12 12 12 12 13 12 12 12 12 12 12 13 12 11 12 12 12 12 12 11 11 11 10 10 8 7 7 6
12 13 13 14 14 14 13 13 12 13 5 2 4 4 3 4 4 6 8 6 6 2 6 6 5 3 4 4 4 3 8 7 8 5 6 6 8 7 9 8 8 8 7 7 6 6 8 6 6 8 8 9 7 8 9 10 11 11 11 11 11 12 11 11 11 12 11 11 11 11 10 10 9 9 10 11 11 11 11 11 10 12 12 11 9 8 7
12 13 13 14 14 14 13 12 12 10 5 5 7 10 7 5 5 6 6 5 5 3 2 2 3 3 3 8 6 5 2 3 6 4 7 3 8 5 7 7 8 8 5 5 5 6 5 5 4 8 11 8 7 7 10 10 11 11 11 11 11 11 11 10 9 8 7 7 6 8 9 9 10 11 10 10 10 9 9 9 9 9 7 7 7 6 6
12 12 13 13 14 13 12 11 8 5 3 4 4 4 5 11 5 5 7 5 1 2 1 3 3 4 6 5 5 3 7 3 6 5 5 3 3 6 5 6 6 5 4 6 5 5 5 6 8 8 7 9 6 8 10 11 12 12 11 11 11 10 10 9 9 10 11 10 10 11 11 10 10 9 9 8 8 7 7 6 6 6 6 6 5 5 4
12 13 13 14 13 11 13 10 5 5 4 4 5 3 5 10 8 9 7 4 2 1 1 2 2 6 5 3 4 4 4 2 5 5 4 2 2 6 4 3 1 3 3 2 4 4 4 6 9 6 9 8 7 8 8 11 12 11 10 10 9 9 9 10 10 9 9 9 10 10 10 9 9 8 8 8 7 6 5 4 4 4 4 5 4 3 3
13 14 13 12 13 10 6 7 4 4 5 4 5 4 5 8 8 4 4 2 5 2 3 2 3 4 3 6 5 2 3 8 5 5 5 3 5 4 6 4 6 4 1 2 5 4 5 1 1 7 4 6 7 6 9 10 11 11 10 9 6 7 8 9 9 9 9 9 9 8 8 8 8 8 7 6 6 5 5 5 3 2 4 3 3 3 1
13 13 14 12 6 5 3 2 3 5 4 4 4 9 9 7 2 3 4 5 3 5 2 2 2 3 2 5 3 1 5 4 3 5 5 3 4 1 4 3 6 2 4 4 4 4 4 3 6 7 6 8 8 10 10 9 9 9 8 8 7 7 8 8 8 9 9 8 8 6 7 7 6 5 5 5 5 3 3 4 3 1 2 3 2 1 3
12 12 5 5 5 2 2 2 2 3 5 4 5 2 4 5 3 3 2 0 1 4 1 3 4 5 4 7 5 3 4 4 2 4 3 3 3 3 2 2 2 1 5 3 4 3 5 4 5 7 8 9 9 8 8 8 7 7 7 6 6 6 7 7 7 7 7 7 6 6 5 6 5 5 4 4 4 3 2 4 4 4 3 2 3 3 3
9 5 5 4 3 2 1 5 4 3 4 3 3 2 3 3 3 1 1 1 2 2 0 1 5 3 4 5 6 1 3 2 3 4 4 0 1 3 2 3 1 1 5 3 3 5 4 5 5 5 7 8 9 8 7 7 6 5 5 4 4 5 4 5 4 3 3 5 5 5 4 4 4 4 2 3 3 2 2 1 1 2 4 2 3 1 2
5 5 2 2 1 5 5 5 3 2 4 3 2 1 3 2 2 2 2 2 1 3 2 4 2 3 2 6 6 6 2 4 2 5 4 4 4 1 1 1 2 1 4 3 4 4 3 6 4 5 7 5 6 8 8 7 7 5 5 4 4 3 2 3 5 3 3 5 5 5 5 5 3 3 2 3 1 2 2 0 2 0 2 6 7 4 5
5 3 2 2 6 6 7 6 5 3 3 2 1 0 2 2 0 1 2 3 2 2 2 5 5 6 2 4 5 5 3 3 5 6 3 3 1 2 3 3 0 1 2 4 2 2 3 4 4 4 6 7 8 8 7 6 6 6 5 5 3 3 3 3 5 5 4 4 4 4 5 4 3 3 3 3 3 3 3 3 1 3 0 2 3 1 2
4 3 4 4 5 6 6 5 3 2 0 1 2 2 1 1 2 2 2 3 4 3 5 5 5 6 5 1 6 4 3 5 1 1 2 3 0 1 3 2 1 2 3 3 3 2 3 3 4 6 6 8 8 7 7 7 6 7 6 5 4 3 4 4 5 5 5 4 4 4 4 3 3 2 2 2 2 2 2 2 2 2 1 3 3 1 2
8 6 5 4 5 4 2 3 0 1 1 0 1 2 2 2 3 4 3 1 2 4 4 3 7 6 6 1 6 4 3 1 2 1 1 3 1 1 2 2 1 2 3 3 3 3 3 3 4 7 8 9 8 8 7 7 6 6 6 4 4 3 3 4 5 5 4 4 4 5 3 3 3 3 2 2 2 2 2 1 1 1 1 0 1 1 2
2 4 4 3 3 1 1 2 1 0 1 2 3 4 4 4 5 3 3 4 3 3 7 6 7 7 5 1 1 4 3 3 0 1 3 2 2 2 1 2 2 4 3 3 2 4 3 3 3 8 9 9 7 8 8 7 6 5 5 4 4 4 4 3 3 4 4 3 4 4 3 3 2 2 1 2 0 1 1 1 2 1 2 1 1 1 1
5 2 2 2 1 1 0 1 2 1 3 3 3 3 4 5 4 5 3 5 5 7 8 6 7 5 5 4 2 3 2 3 1 1 2 2 2 2 2 2 3 2 3 3 3 3 2 3 7 10 11 10 9 8 7 6 6 5 5 4 4 3 2 3 3 4 5 4 5 4 3 4 4 3 2 1 1 1 2 0 1 2 1 2 2 2 2
3 4 3 3 2 3 1 2 2 3 2 3 3 4 6 5 6 4 7 6 7 9 8 7 6 6 5 3 1 3 2 3 3 2 2 2 3 2 2 2 1 3 2 3 3 4 4 4 6 8 10 10 9 9 7 6 5 4 5 5 3 2 1 1 3 4 5 5 4 4 2 2 2 2 2 1 2 2 2 3 2 3 2 3 3 3 3
2 1 2 1 2 2 2 2 4 2 3 5 3 3 2 4 5 6 5 5 8 7 7 6 6 6 5 4 3 2 2 2 2 2 2 2 2 2 1 1 2 2 4 4 4 3 4 5 6 9 10 9 9 9 7 6 5 4 5 3 2 2 1 2 3 4 4 5 5 4 3 3 3 3 2 4 4 3 3 4 4 4 4 4 3 3 3
3 0 1 2 3 3 4 2 2 2 1 1 3 2 4 5 6 7 6 7 8 7 7 6 6 4 3 1 4 4 3 3 3 2 1 3 2 2 2 1 2 2 2 3 3 3 3 6 7 8 10 10 10 6 7 6 5 5 4 2 2 2 2 2 3 3 4 4 3 3 2 1 2 3 4 4 4 4 4 4 5 5 5 4 3 4 4
1 2 2 1 1 3 3 3 4 5 5 3 3 4 6 7 7 7 5 6 8 7 7 5 3 2 3 2 2 3 3 3 2 2 2 2 2 3 3 3 4 4 2 3 4 3 4 6 9 11 11 11 10 7 6 6 5 4 3 3 2 2 2 2 3 3 3 3 3 3 3 1 3 3 3 3 4 3 2 3 5 5 5 5 5 5 5
2 1 1 2 2 2 2 3 4 3 5 5 5 6 6 7 8 8 6 8 7 6 6 6 3 3 4 2 2 2 2 2 2 3 3 3 2 3 2 4 3 3 4 3 3 4 7 9 10 10 11 11 10 7 6 6 4 4 3 2 2 2 3 4 4 4 4 3 3 3 2 2 5 4 2 3 3 4 4 5 5 5 5 5 5 5 5
1 2 2 1 1 2 4 4 3 4 4 6 6 6 6 8 8 8 5 7 7 5 2 4 2 2 3 2 2 2 1 2 3 4 3 3 2 2 3 3 5 3 4 3 6 7 8 9 8 10 10 9 8 6 6 7 5 4 3 3 2 2 3 3 3 3 3 3 3 2 3 5 3 3 3 3 5 5 5 5 4 4 5 5 5 6 6
2 3 3 3 3 3 4 1 2 5 6 6 6 6 6 9 8 8 5 6 6 6 3 3 3 3 2 3 2 2 2 2 2 2 3 2 1 2 2 3 3 4 4 4 7 8 7 7 8 7 8 8 7 6 5 6 4 3 3 2 3 3 3 4 3 3 3 3 3 4 4 4 3 3 4 4 5 5 6 5 4 4 2 5 5 5 6
Wind_Direction
312 313 315 314 317 323 327 328 329 329 324 313 350 321 223 204 126 107 158 171 199 208 229 225 192 231 95 54 221 97 207 254 157 245 187 222 217 261 228 248 248 239 268 275 259 262 266 263 248 242 189 103 332 39 238 257 237 232 207 215 221 201 231 229 227 217 254 220 175 198 219 232 232 231 249 219 225 224 241 253 270 262 348 340 291 245 121
314 317 314 314 318 325 327 327 327 321 323 317 306 263 235 187 115 159 170 184 207 232 213 175 214 191 122 261 245 137 307 220 186 236 166 253 176 231 238 246 243 281 220 271 259 290 271 255 256 247 168 143 289 291 226 211 236 224 38 296 156 206 208 240 221 222 233 199 206 195 206 225 232 230 217 238 234 243 229 231 349 269 241 235 266 261 161
320 316 316 318 323 325 325 326 320 316 302 294 296 260 263 183 152 163 164 182 219 217 261 293 215 154 194 205 212 178 211 222 300 314 236 193 251 276 235 266 351 257 259 264 268 268 253 268 287 297 57 143 196 134 250 224 250 35 60 309 196 240 220 211 228 220 216 204 210 200 205 208 219 227 237 237 259 246 244 226 193 258 236 245 252 126 74
318 316 318 321 323 324 326 325 317 311 301 258 244 251 257 190 156 154 162 198 205 255 297 290 310 152 194 227 236 230 218 148 224 240 247 270 302 257 311 277 243 259 264 260 249 245 223 243 237 236 148 322 130 142 118 29 35 29 25 307 231 256 291 258 257 263 251 10 317 306 328 286 219 217 193 215 231 273 257 258 248 242 290 258 304 148 173
312 316 316 320 324 326 329 327 318 314 305 252 226 243 247 279 225 156 178 166 212 242 220 204 219 228 193 210 203 210 225 194 150 204 249 180 255 249 239 284 264 255 264 281 279 272 268 219 249 263 291 169 4 239 81 96 32 336 269 353 240 229 224 237 239 264 275 264 328 338 307 319 305 263 226 208 211 258 273 263 245 263 273 232 82 136 170
312 314 317 321 327 329 329 328 320 321 322 113 219 238 210 228 134 184 106 253 163 197 199 207 166 41 219 144 270 223 204 198 189 153 254 21 188 259 168 238 238 245 248 257 259 264 259 249 254 262 259 212 145 220 73 40 16 1 52 24 9 356 260 226 233 233 249 276 168 352 319 84 252 176 221 188 206 236 240 242 252 41 255 296 113 108 173
315 316 318 324 329 329 329 324 325 322 326 302 257 248 197 271 124 168 153 253 78 30 36 346 194 193 220 156 233 233 222 218 186 223 180 212 196 216 223 257 228 286 260 252 247 275 268 220 23 295 323 309 240 142 70 19 61 94 55 52 40 11 290 291 224 238 224 208 289 147 318 277 175 141 227 181 221 226 278 300 4 316 94 91 149 144 122
315 314 319 327 328 329 330 326 328 315 239 246 255 245 251 196 207 153 202 344 109 137 182 189 221 188 331 228 178 222 224 219 185 208 237 246 236 219 260 230 216 265 291 292 242 69 359 11 218 22 317 288 273 83 75 267 344 54 58 1 72 66 61 2 297 232 212 202 226 209 227 273 159 53 26 360 29 68 24 10 25 308 113 139 116 110 100
313 315 321 327 328 330 332 327 334 286 252 235 230 243 224 294 336 316 195 175 111 153 178 197 198 166 183 224 153 231 213 178 261 238 259 190 220 249 243 270 287 261 262 140 102 88 52 306 302 294 287 276 23 288 173 199 234 155 113 147 99 359 298 309 317 270 238 192 220 206 173 252 243 126 29 15 347 310 26 17 16 53 121 128 138 125 128
311 318 324 328 331 333 331 331 329 335 234 280 285 242 247 262 239 271 275 170 152 232 146 206 202 190 75 13 140 227 167 185 203 212 273 266 276 258 277 282 284 245 270 257 207 16 335 348 329 319 284 254 299 287 290 328 341 307 156 159 196 202 270 265 267 267 252 202 214 215 242 298 269 192 40 3 338 353 113 46 28 29 324 174 191 164 109
320 325 327 331 334 333 331 330 330 293 249 266 277 254 239 238 225 191 237 179 160 229 169 176 229 47 98 176 156 192 226 223 184 229 203 212 181 120 251 256 263 252 251 3 346 293 297 289 302 282 272 269 218 188 216 324 310 245 225 173 164 177 201 238 128 248 177 143 162 163 187 227 217 43 0 15 31 345 333 49 20 32 31 58 59 108 123
327 328 331 335 335 334 331 329 325 322 279 276 285 282 289 321 283 252 224 171 130 284 250 103 30 135 196 169 234 183 193 207 248 41 270 306 338 207 251 219 207 252 65 302 290 294 266 261 250 253 256 240 247 211 194 168 174 173 204 223 177 176 199 231 236 260 262 124 135 181 221 213 66 160 39 15 28 46 76 68 37 28 62 91 99 112 124
328 331 332 334 334 333 331 328 325 324 296 276 258 271 306 329 282 250 216 235 138 211 220 118 124 144 67 131 214 230 277 337 211 253 271 244 239 224 232 352 278 31 359 320 291 273 266 252 244 241 231 215 216 218 198 158 162 174 172 205 214 196 198 187 195 217 105 203 197 217 128 65 32 56 40 22 217 46 135 84 48 27 52 103 103 93 96
329 332 332 333 334 332 331 330 329 322 309 282 261 258 280 282 245 249 235 224 139 115 45 98 163 151 182 181 296 269 238 221 243 242 249 229 245 248 202 224 9 357 293 309 268 261 266 231 238 218 226 207 212 217 173 134 169 196 170 166 188 164 116 99 245 186 203 216 188 78 116 141 121 61 23 5 33 4 0 28 74 39 23 104 120 120 119
331 331 333 333 333 333 333 333 330 324 310 279 258 267 262 233 273 295 312 275 141 138 236 198 98 118 166 280 270 258 215 194 217 211 203 157 256 238 270 275 338 321 333 282 266 242 242 248 228 223 228 215 203 220 180 196 161 176 185 186 164 150 137 105 117 192 248 186 140 143 195 159 84 59 81 117 76 313 308 320 113 70 62 99 126 127 129
332 333 334 334 334 334 336 334 329 323 314 286 248 262 262 347 310 284 283 274 135 193 89 48 30 322 242 157 295 291 14 279 237 254 189 192 225 229 196 238 280 302 286 252 260 255 230 233 248 250 231 227 267 192 234 207 175 147 158 178 180 164 144 145 198 249 281 244 202 207 178 78 52 47 17 23 1 330 315 267 126 57 63 110 124 127 130
333 337 338 336 335 337 336 333 330 325 317 272 263 253 176 78 275 284 269 197 16 64 69 70 49 259 246 153 194 211 351 325 343 292 261 195 177 295 177 170 179 235 236 264 251 242 235 229 209 224 212 158 169 272 7 258 163 155 149 162 179 175 187 184 233 237 237 276 245 143 44 102 31 9 357 360 24 269 283 204 117 58 105 112 124 128 139
341 342 338 336 338 338 335 335 330 327 315 273 251 285 106 116 271 288 254 205 123 92 67 57 296 251 37 29 28 35 257 240 210 176 278 37 228 199 132 193 225 187 249 248 233 239 258 258 247 206 211 13 78 14 272 118 133 83 122 150 157 182 187 208 232 254 265 245 99 110 100 61 3 351 343 8 356 305 241 28 63 98 104 111 106 102 91
345 342 338 339 339 338 336 334 332 326 321 310 276 259 141 328 238 275 283 132 134 102 85 86 47 49 47 55 40 42 40 7 335 290 240 213 61 31 297 24 328 202 192 233 239 242 249 233 241 137 152 221 240 166 266 264 102 19 342 128 129 86 304 155 269 274 7 313 190 84 78 36 344 344 346 352 299 261 63 44 248 118 110 117 111 98 87
342 341 339 341 340 338 337 334 330 326 319 318 279 284 79 1 292 294 302 106 101 114 120 87 75 86 36 7 34 9 349 193 345 326 14 13 100 224 218 218 186 257 192 236 223 267 254 235 251 77 80 83 46 26 118 69 50 65 58 350 11 27 302 85 51 340 190 208 139 148 109 35 5 331 237 14 26 47 333 350 104 108 122 115 96 93 98
341 340 342 342 342 340 338 334 332 333 329 322 271 256 132 107 299 252 267 113 126 111 94 67 74 58 45 56 29 16 10 16 357 343 10 37 45 291 258 1 50 152 167 179 231 167 210 229 190 83 52 40 99 281 113 90 80 53 60 77 53 345 283 83 74 9 337 64 46 43 17 344 360 11 47 14 31 341 314 225 104 116 119 105 94 93 98
342 343 345 345 344 341 338 338 339 338 332 318 304 267 124 122 103 49 109 98 106 92 80 75 73 73 63 59 47 27 19 14 11 352 333 347 85 9 111 214 21 343 16 335 294 153 242 52 80 112 112 112 210 19 3 159 85 69 34 349 103 11 66 27 75 22 24 54 62 38 32 26 34 35 49 43 25 20 15 97 117 119 110 97 102 107 106
347 348 348 347 344 342 340 342 344 339 336 326 308 187 120 141 128 117 111 103 100 106 127 121 122 113 107 74 58 41 36 28 355 357 352 330 358 62 22 51 69 10 354 79 287 315 67 47 79 96 104 93 90 98 70 58 73 60 71 57 108 126 97 108 90 94 95 67 56 60 54 47 51 50 46 47 50 36 32 33 71 84 90 99 110 115 110
354 352 350 346 344 343 344 346 346 342 339 333 321 129 129 127 137 140 126 126 127 121 103 79 87 55 35 48 52 50 40 41 19 3 350 332 350 110 105 44 347 170 69 21 337 4 63 57 72 81 84 14 125 104 100 92 82 101 93 90 74 82 116 100 92 164 170 49 26 48 51 57 62 66 62 62 58 52 41 29 54 83 88 102 110 113 113
353 351 348 346 344 345 347 348 346 345 339 337 339 90 103 129 93 102 138 134 145 124 102 87 62 48 69 42 45 42 38 358 21 8 2 264 326 25 54 32 350 16 55 7 279 133 97 97 105 96 85 119 231 91 87 106 95 66 97 92 100 81 78 79 74 72 74 91 75 73 71 63 61 60 65 64 67 70 64 58 54 82 96 107 114 112 109
352 349 348 346 346 347 347 345 346 344 341 337 315 168 145 99 37 305 224 81 95 119 112 102 98 81 53 58 48 42 8 29 63 55 45 56 55 44 77 99 94 333 12 26 44 70 86 84 75 78 81 70 55 85 76 70 98 85 74 73 72 99 116 74 89 92 101 111 105 98 80 68 61 65 69 79 90 92 87 74 69 70 66 60 63 76 106
348 349 345 347 346 346 345 344 345 345 338 333 331 93 104 108 10 346 12 62 125 94 113 105 114 100 83 67 50 62 59 77 81 90 81 70 73 84 70 88 99 97 80 72 60 67 66 74 72 74 65 77 77 80 90 90 80 79 75 75 91 99 95 121 117 102 94 93 63 73 72 69 65 66 82 89 89 87 81 73 69 63 60 59 66 61 56
348 345 344 344 347 344 344 342 343 339 337 322 304 73 96 100 46 4 338 352 317 124 127 123 112 102 99 63 51 52 52 62 73 86 83 68 62 57 71 60 61 84 88 99 103 90 86 85 85 95 96 99 96 87 86 88 82 70 66 66 53 82 110 113 86 90 95 92 84 84 88 89 94 106 98 89 86 82 83 83 84 82 78 77 78 76 71
345 342 343 345 344 343 341 340 338 334 331 315 197 139 128 90 80 69 2 345 292 120 111 106 131 138 74 49 51 74 64 73 77 81 78 82 81 74 64 70 80 78 79 77 75 75 68 58 50 73 68 340 38 100 95 79 70 67 64 78 84 85 86 90 96 99 101 107 105 103 97 98 105 108 117 112 97 89 90 89 90 97 109 114 108 104 102
341 342 342 345 343 340 340 335 331 327 319 290 193 159 133 137 76 20 2 319 298 130 125 122 100 92 102 60 72 77 81 72 73 71 75 78 74 76 83 80 70 68 69 69 73 77 69 82 80 86 62 280 120 94 95 89 85 82 81 72 72 77 78 79 83 89 94 93 92 95 101 107 108 100 89 87 92 97 97 96 97 95 84 82 95 105 104
339 341 342 341 340 337 334 331 324 319 305 264 213 163 172 148 121 61 0 322 326 297 111 107 98 112 94 60 49 78 85 77 69 72 71 68 72 76 71 79 84 82 80 73 75 83 116 100 105 83 79 23 60 101 96 96 93 88 84 87 85 89 91 92 93 91 97 101 103 104 107 106 108 107 103 107 113 112 111 110 116 115 111 91 76 66 71
338 339 338 337 334 333 328 325 324 307 286 328 340 350 21 41 46 335 331 313 303 163 117 127 142 120 89 97 82 55 88 97 95 85 82 82 81 77 73 63 67 55 59 78 76 80 63 59 66 71 76 64 71 93 95 95 98 97 101 94 92 90 90 93 95 99 103 108 115 112 99 98 96 97 107 112 107 106 106 112 124 142 153 131 136 139 142
335 334 331 331 328 325 323 316 328 354 80 81 121 142 100 30 340 315 323 316 264 125 174 139 110 138 132 108 127 85 353 150 105 112 84 69 98 90 90 93 92 91 88 90 82 85 89 86 81 87 76 81 88 95 98 97 100 106 101 98 95 94 94 94 96 100 106 104 95 96 102 104 106 104 103 101 104 112 115 110 115 127 108 101 100 103 110
329 328 325 323 320 317 311 311 303 316 262 192 145 83 52 11 340 10 327 284 25 107 226 118 144 125 111 199 157 95 288 131 117 121 98 39 85 110 106 96 69 73 60 87 108 107 91 86 86 81 83 81 86 96 97 102 108 106 102 100 100 98 97 97 94 90 84 82 88 92 92 95 96 97 93 86 86 91 100 112 114 114 111 106 104 99 94
322 321 320 314 310 312 304 288 279 226 154 111 85 76 20 350 333 292 299 302 185 107 95 149 128 134 153 160 122 113 302 171 109 105 107 76 291 109 124 109 122 95 82 89 85 74 95 93 104 95 88 102 101 97 107 116 112 111 111 107 102 106 106 96 88 85 89 98 99 103 113 113 107 103 108 112 103 94 92 89 95 112 107 88 93 122 156
318 314 310 310 304 293 268 229 238 174 138 109 99 51 356 313 300 294 293 251 301 138 159 142 176 134 141 135 140 129 254 90 99 101 86 110 86 83 98 103 98 67 252 94 98 108 95 263 183 97 113 99 93 105 110 114 116 112 106 104 104 89 89 91 101 104 100 97 102 106 103 101 101 102 98 95 89 79 77 95 91 64 89 124 91 72 292
313 311 300 286 268 207 210 121 66 3 50 31 350 327 298 287 233 239 228 224 164 298 231 181 174 110 129 103 105 143 237 126 162 121 155 131 88 108 120 118 89 110 99 96 92 93 71 46 87 102 97 102 107 109 114 116 114 114 114 114 114 108 104 101 99 102 105 107 107 109 103 103 104 100 95 93 96 101 108 78 66 67 96 91 110 82 37
315 303 268 204 197 149 120 132 79 31 323 292 282 212 165 227 165 180 170 145 36 288 58 306 96 113 127 145 125 124 256 118 232 115 107 117 127 87 90 86 94 207 99 89 79 23 83 79 88 96 100 101 112 110 111 109 111 113 122 115 109 114 117 120 128 123 116 123 125 122 124 112 107 111 122 108 110 109 60 27 44 34 63 79 21 13 324
278 235 223 224 201 130 80 96 64 14 294 178 252 205 158 212 145 151 102 102 183 171 307 220 120 149 126 110 112 97 336 141 140 152 149 16 259 136 226 137 163 182 110 137 111 270 104 101 115 119 110 121 123 118 118 116 113 109 107 103 103 106 126 136 126 101 127 102 108 114 104 113 124 106 79 92 76 38 62 126 107 61 39 349 82 14 100
205 204 193 172 69 89 96 109 136 216 213 180 181 198 148 237 170 172 216 171 142 105 217 126 65 70 40 138 147 130 31 313 180 162 120 127 322 157 172 108 110 167 142 155 106 233 145 130 128 133 127 135 124 144 133 129 109 105 94 111 119 144 157 142 135 131 102 104 102 97 102 94 80 100 95 88 77 101 110 169 80 42 71 51 33 322 344
210 197 185 101 109 116 126 151 178 214 197 164 135 210 132 181 346 104 189 174 164 125 318 110 159 141 98 117 149 139 131 289 24 64 118 106 45 299 128 112 201 173 141 114 138 218 133 139 153 138 123 134 146 127 116 115 109 109 99 97 97 112 163 155 149 161 141 134 131 127 105 97 96 85 64 36 9 20 58 80 109 90 5 138 152 87 41
6 331 16 80 103 117 143 162 195 136 38 158 157 158 182 144 164 205 221 201 149 155 158 157 154 160 145 73 96 118 114 326 342 141 127 130 295 322 110 124 194 153 118 90 162 171 140 165 153 121 124 136 133 137 140 129 126 113 106 99 97 107 136 154 156 170 184 150 134 129 119 114 99 95 70 52 79 102 107 108 91 119 280 40 6 96 112
273 256 267 151 146 160 196 136 107 208 149 47 175 143 182 188 187 193 165 339 95 180 116 335 72 75 88 143 91 13 63 357 253 182 119 109 175 246 134 127 190 137 112 150 205 138 161 161 149 130 147 146 157 151 134 125 115 107 96 95 89 88 110 144 156 164 175 176 152 134 129 135 120 76 46 108 116 98 59 43 42 17 56 294 322 65 102
215 196 183 145 139 126 209 129 187 30 334 181 157 162 188 187 185 195 190 163 168 146 150 169 161 190 141 258 129 126 135 155 296 83 92 126 177 100 137 164 99 81 141 184 174 169 154 174 157 136 147 148 159 146 135 135 128 123 116 104 103 105 97 104 142 154 164 190 165 134 166 126 111 136 140 50 26 91 114 74 38 44 15 314 209 183 161
159 175 142 139 133 166 152 60 240 190 196 194 214 186 174 196 174 201 174 126 188 141 161 159 168 165 124 113 121 134 252 131 165 178 128 176 131 143 179 119 116 173 188 168 172 134 128 170 120 140 148 159 154 149 147 143 132 132 119 117 98 94 116 131 159 169 163 181 162 164 182 156 180 155 129 137 341 341 306 130 231 267 234 263 264 212 191
195 157 147 122 9 290 216 160 163 214 214 160 209 178 187 186 173 161 105 167 146 142 161 159 148 128 137 168 264 139 171 144 144 105 143 149 136 115 49 86 195 174 185 177 173 159 172 160 150 155 158 157 154 149 145 145 136 137 150 125 113 100 71 153 163 164 166 168 161 191 182 193 217 208 193 184 271 282 289 293 261 261 262 252 253 250 209
173 187 200 139 139 185 231 178 194 199 163 189 202 220 205 110 129 123 140 145 141 148 128 137 134 144 144 148 128 133 145 110 115 132 228 122 111 97 244 185 181 173 181 175 169 180 172 160 156 156 163 162 146 140 156 152 160 156 120 120 123 76 134 162 167 160 157 175 176 196 189 205 218 227 263 280 273 273 271 276 275 269 259 265 245 237 230
161 200 222 169 194 178 196 213 141 115 294 126 110 107 113 112 129 128 154 167 129 135 133 127 121 135 127 149 236 133 118 108 119 124 31 104 130 140 137 162 181 183 177 176 183 201 146 136 152 161 149 145 141 153 160 153 149 138 133 123 95 132 116 141 159 157 180 193 189 214 211 223 254 269 273 279 287 288 278 257 247 239 247 248 253 254 248
246 181 198 198 195 173 209 150 185 169 150 144 155 161 165 166 130 129 134 121 144 143 141 165 131 162 121 164 116 116 133 138 161 135 160 167 141 153 172 172 172 170 190 215 175 182 130 134 143 145 146 146 140 165 164 148 158 150 163 147 138 125 173 153 133 149 193 204 197 212 222 233 282 271 253 255 269 266 278 283 267 251 245 248 256 254 252
193 154 307 201 190 223 146 174 223 143 146 147 166 166 171 141 137 133 151 151 145 155 184 129 216 195 123 194 146 149 160 187 113 153 182 163 169 184 174 151 173 188 184 216 122 124 123 141 149 152 145 142 157 173 161 147 150 168 156 137 161 195 180 151 173 166 204 200 189 222 233 208 236 239 273 305 294 292 284 273 272 267 259 261 257 257 258
289 261 223 299 287 156 166 193 187 154 159 166 170 156 163 141 143 144 177 146 144 128 151 159 157 120 155 150 132 166 145 97 157 171 180 170 174 172 158 164 207 182 153 134 120 141 147 150 148 144 141 146 157 169 150 139 180 184 164 193 187 194 160 186 197 173 198 210 210 192 247 249 250 272 280 268 276 281 283 258 242 257 275 271 260 263 259
193 208 205 176 261 181 197 304 156 164 156 154 157 145 150 140 145 136 159 148 150 190 168 129 155 145 138 174 190 113 125 194 177 165 156 127 186 151 183 182 147 104 130 144 133 136 139 145 132 135 155 152 158 168 160 152 176 167 190 183 189 183 183 176 193 192 205 204 219 228 241 240 263 251 255 273 291 277 266 271 277 269 246 256 250 249 256